{"data":{"norad_id":55463,"epoch":"2026-09-20T21:21:40.154976Z","epoch_age_seconds":66298,"freshness":"FRESH","line1":"1 55463U 23015Q   26263.89004809  .00014525  00000+0  64249-3 0  9995","line2":"2 55463  42.9991 320.9979 0007862  19.1075 341.0068 15.21492510200402","mean_motion":15.2149251,"eccentricity":0.0007862,"inclination_deg":42.9991,"raan_deg":320.9979,"arg_perigee_deg":19.1075,"mean_anomaly_deg":341.0068,"bstar":0.00064249,"rev_number":20040,"period_min":94.643909880306,"perigee_km":495.92933647639,"apogee_km":506.74662293448,"semimajor_km":6879.4749797054,"source":"CELESTRAK","updated_at":"2026-09-21T09:00:33.229659Z"}}